Regional Weather Roundup
Issued by NWS

Home | Current Version | Previous Version | Graphics & Text | Print | Product List | Glossary On
Versions: 1 2 3 4 5 6 7 8 9 10 11 12 13 14 15 16 17 18 19 20 21 22 23 24 25 26 27 28 29 30 31 32 33 34 35 36 37 38 39 40 41 42 43 44 45 46 47 48 49 50
000
ASUS43 KBIS 201710
RWRND

NORTH DAKOTA REGIONAL WEATHER ROUNDUP
NATIONAL WEATHER SERVICE BISMARCK ND
1200 PM CDT SUN APR 20 2014

NOTE: "FAIR" INDICATES FEW OR NO CLOUDS BELOW 12,000 FEET WITH NO
SIGNIFICANT WEATHER AND/OR OBSTRUCTIONS TO VISIBILITY.


NDZ001>003-009>011-017-201800-
NORTHWEST NORTH DAKOTA

CITY           SKY/WX    TMP DP  RH WIND       PRES   REMARKS
WILLISTON      PTSUNNY   59  34  39 SW14      29.83F
MINOT          MOSUNNY   61  33  35 S15       29.85F
MINOT AFB      MOSUNNY   62  38  41 S13       29.85F
$$

NDZ018>021-031>035-040>046-201800-
SOUTHWEST NORTH DAKOTA

CITY           SKY/WX    TMP DP  RH WIND       PRES   REMARKS
BISMARCK       MOSUNNY   68  31  25 S13       29.92F
DICKINSON      CLOUDY    65  32  29 S16       29.87S
GARRISON         N/A     60  34  37 S9        29.88F
HETTINGER ARPT PTSUNNY   66  35  31 S13       29.92R
$$

NDZ004>008-012>016-024-026-027-054-201800-
NORTHEAST NORTH DAKOTA

CITY           SKY/WX    TMP DP  RH WIND       PRES   REMARKS
GRAND FORKS    MOSUNNY   55  38  52 SE7       30.00F
GRND FRKS AFB  SUNNY     58  37  46 S8        30.00F
DEVILS LAKE    MOSUNNY   57  37  47 S12       29.95F
$$

NDZ022-023-025-028>030-036>039-047>053-201800-
SOUTHEAST NORTH DAKOTA

CITY           SKY/WX    TMP DP  RH WIND       PRES   REMARKS
FARGO          SUNNY     63  38  39 S13       30.00F
JAMESTOWN      SUNNY     64  39  39 S12G21    29.95F
$$




USA.gov is the U.S. government's official web portal to all federal, state and local government web resources and services.